TimeEDT,TemperatureF,Dew PointF,Humidity,Sea Level PressureIn,VisibilityMPH,Wind Direction,Wind SpeedMPH,Gust SpeedMPH,PrecipitationIn,Events,Conditions,WindDirDegrees,DateUTC
12:53 AM,60.1,54.0,80,30.18,10.0,SSW,4.6,-,N/A,,Clear,200,2012-10-05 04:53:00
1:53 AM,60.1,54.0,80,30.19,10.0,SSW,3.5,-,N/A,,Clear,200,2012-10-05 05:53:00
2:53 AM,59.0,53.1,81,30.19,10.0,Calm,Calm,-,N/A,,Clear,0,2012-10-05 06:53:00
4:53 AM,57.0,53.1,87,30.15,9.0,Calm,Calm,-,N/A,,Clear,0,2012-10-05 08:53:00
5:53 AM,57.0,53.1,87,30.17,9.0,Calm,Calm,-,N/A,,Clear,0,2012-10-05 09:53:00
6:53 AM,55.9,53.1,90,30.17,10.0,Calm,Calm,-,N/A,,Clear,0,2012-10-05 10:53:00
7:53 AM,55.9,53.1,90,30.18,10.0,Calm,Calm,-,N/A,,Clear,0,2012-10-05 11:53:00
8:53 AM,59.0,55.0,87,30.19,9.0,South,3.5,-,N/A,,Clear,180,2012-10-05 12:53:00
9:53 AM,63.0,55.9,78,30.17,9.0,SSW,5.8,-,N/A,,Clear,200,2012-10-05 13:53:00
10:53 AM,68.0,57.0,68,30.16,9.0,SSW,6.9,-,N/A,,Clear,200,2012-10-05 14:53:00
11:53 AM,71.1,57.9,63,30.14,9.0,Variable,5.8,-,N/A,,Mostly Cloudy,0,2012-10-05 15:53:00
12:53 PM,73.0,57.9,59,30.12,10.0,Variable,6.9,-,N/A,,Partly Cloudy,0,2012-10-05 16:53:00
1:53 PM,73.9,57.0,55,30.09,10.0,SW,10.4,17.3,N/A,,Scattered Clouds,220,2012-10-05 17:53:00
2:53 PM,77.0,57.0,50,30.07,10.0,SSW,6.9,19.6,N/A,,Partly Cloudy,210,2012-10-05 18:53:00
3:53 PM,77.0,55.0,47,30.04,10.0,Variable,6.9,-,N/A,,Partly Cloudy,0,2012-10-05 19:53:00
4:53 PM,75.0,54.0,48,30.01,10.0,SW,6.9,-,N/A,,Scattered Clouds,220,2012-10-05 20:53:00
5:53 PM,73.9,55.0,52,30.00,10.0,SSW,6.9,-,N/A,,Clear,200,2012-10-05 21:53:00
6:53 PM,71.1,55.0,57,30.00,10.0,South,4.6,-,N/A,,Clear,170,2012-10-05 22:53:00
7:53 PM,66.0,57.0,73,29.99,10.0,SSE,3.5,-,N/A,,Clear,160,2012-10-05 23:53:00
8:53 PM,66.9,55.0,66,29.97,10.0,South,5.8,-,N/A,,Clear,170,2012-10-06 00:53:00
9:53 PM,66.0,54.0,65,29.97,10.0,South,6.9,-,N/A,,Clear,190,2012-10-06 01:53:00
10:53 PM,66.0,54.0,65,29.94,10.0,South,5.8,-,N/A,,Clear,180,2012-10-06 02:53:00
11:53 PM,64.9,55.0,70,29.92,10.0,South,4.6,-,N/A,,Clear,170,2012-10-06 03:53:00